FENGYUN 2G

Last updated on Thu Oct 30 2025 00:02:23 GMT+0000 (Coordinated Universal Time)

1 40367U 14090A 25302.65206795 -.00000288 00000+0 00000+0 0 9993 2 40367 5.0515 75.6095 0002339 183.2621 113.3388 1.00283486 39685
UTC large
Height (km)
Speed (km/s)
/
Latitude / Longitude
Inclination (degrees)
Orbital Period (minutes)
Azimuth
Elevation
Range (km)
Doppler Factor

Next 0 passes for location: London (51.5072 / 0.1276)

Sorry there are no passes over London.